Wind_Speed
37 38 38 39 40 41 42 44 45 45 46 47 49 50 51 52 53 54 55 56 57 57 58 59 59 60 61 61 62 62 62 62 62 63 64 64 64 65
37 38 39 40 41 42 44 45 46 48 49 50 51 53 54 55 56 57 58 58 59 59 61 62 62 62 63 63 62 62 62 63 63 64 65 65 66 66
38 39 40 41 43 44 45 46 48 50 51 51 53 55 56 57 58 59 60 61 62 63 64 64 64 64 64 63 62 62 63 64 64 64 65 65 65 66
39 40 42 43 44 45 47 48 50 51 53 53 55 56 58 59 61 62 63 64 64 65 65 65 64 64 63 62 62 63 63 63 62 62 62 62 63 63
40 41 43 44 45 46 48 49 51 53 55 56 57 58 60 61 62 63 63 64 65 65 64 64 64 63 63 63 63 62 62 61 60 59 59 59 59 59
41 42 44 45 46 47 49 51 53 55 57 58 59 60 61 61 62 62 63 64 64 64 64 64 63 63 62 61 61 60 59 59 58 57 56 55 55 55
42 43 44 45 47 49 50 52 54 56 58 59 60 61 61 61 62 63 64 63 62 62 62 61 61 60 59 58 58 57 57 55 54 52 52 51 52 52
43 44 45 46 48 50 52 54 56 58 59 60 60 61 61 62 63 64 64 62 61 61 60 59 58 57 57 56 55 55 53 52 51 50 49 49 49 48
43 44 45 47 49 51 53 55 57 58 60 61 61 61 62 63 64 64 63 62 60 59 58 57 57 56 55 53 52 51 50 49 48 46 45 44 44 44
44 45 46 48 51 52 54 56 58 60 61 61 61 62 62 63 64 63 61 60 59 58 58 57 55 54 52 50 49 48 47 45 43 41 40 40 39 39
45 46 48 50 52 54 55 57 59 60 60 60 61 62 63 64 63 61 60 59 58 58 57 56 53 51 49 48 46 44 43 41 39 38 37 36 35 34
46 47 49 51 53 54 56 58 59 59 59 60 62 63 63 62 61 60 60 59 58 56 54 52 50 48 46 45 44 42 40 38 37 35 34 33 32 30
46 48 49 51 53 55 56 58 59 59 59 61 62 62 62 60 59 59 58 56 55 53 50 47 46 45 43 41 39 38 36 34 33 32 30 29 28 27
47 48 50 52 53 55 56 58 58 59 60 61 62 61 59 58 56 55 54 53 51 48 46 45 43 41 39 37 35 34 32 30 29 28 27 25 25 23
48 49 51 52 54 55 57 58 59 60 60 60 60 58 57 55 54 52 50 48 47 45 43 41 39 36 35 33 31 31 29 27 26 25 24 23 21 20
48 50 51 53 54 56 57 59 59 60 59 59 58 56 54 52 51 49 47 45 44 42 40 37 35 33 32 30 29 27 26 25 24 23 22 21 19 18
49 50 52 53 55 57 58 59 59 59 58 57 55 52 50 49 48 46 44 42 40 38 36 34 32 30 29 28 26 25 24 23 22 21 20 18 17 15
50 51 53 54 56 57 59 59 58 57 56 54 51 49 48 46 45 43 41 40 38 36 34 32 30 29 28 26 24 23 22 20 20 19 17 16 15 14
50 52 53 55 56 58 58 58 57 55 54 51 49 47 45 44 42 41 40 38 35 34 32 30 29 28 26 24 22 21 19 19 18 17 15 14 13 12
51 53 54 55 56 57 58 57 55 53 51 49 46 45 43 42 41 40 38 35 33 32 30 28 27 26 24 22 20 19 17 17 16 15 13 12 11 11
52 53 54 55 56 57 57 55 52 50 49 46 44 43 41 40 39 38 36 33 31 29 28 27 26 24 21 20 19 17 16 15 14 13 12 10 10 9
53 54 54 55 56 56 54 52 50 48 46 44 42 41 40 39 37 35 33 31 29 27 26 25 24 22 20 19 17 16 16 15 13 12 10 8 8 7
53 54 54 55 55 54 51 49 48 46 44 42 40 39 38 37 35 33 31 28 27 26 25 24 22 20 18 17 16 15 15 13 12 11 9 7 6 5
Wind_Direction
298 299 300 300 301 301 302 303 303 303 303 303 302 302 302 302 302 301 301 300 300 300 299 299 297 296 295 294 293 291 289 288 286 284 282 279 277 275
298 299 300 300 301 302 302 303 303 303 304 304 303 303 303 303 302 302 301 301 301 300 300 299 298 297 296 295 293 292 290 289 287 285 282 280 278 276
298 299 300 301 302 302 302 303 303 303 304 304 304 304 303 303 303 303 302 301 301 301 300 300 299 298 297 295 294 293 292 290 289 286 283 281 278 277
298 299 300 301 302 303 303 303 303 304 305 305 304 304 304 304 304 303 303 302 302 302 302 301 300 299 298 297 296 295 294 292 290 288 285 282 279 277
299 300 301 302 302 303 303 304 304 305 305 305 305 305 305 304 304 304 304 304 304 303 303 302 301 300 299 298 297 296 294 293 291 289 286 283 280 278
299 300 301 302 302 302 304 305 305 305 305 306 306 306 305 305 305 305 305 305 304 304 303 303 302 301 300 299 298 297 296 295 293 291 287 284 281 279
299 300 301 302 302 303 304 305 306 306 306 307 307 306 306 306 306 306 306 306 305 305 304 304 303 303 302 301 300 299 298 296 294 292 289 286 283 281
300 301 302 303 303 304 305 306 307 307 308 308 307 307 307 307 307 308 308 306 306 306 305 304 304 304 303 302 301 300 299 298 296 295 292 289 286 283
300 301 302 303 304 305 306 307 307 308 309 308 308 308 308 308 308 308 308 307 307 306 306 305 304 304 304 303 303 302 301 300 299 296 294 291 288 284
301 302 303 304 305 306 307 308 308 309 309 309 309 309 309 309 309 308 308 307 307 307 307 306 306 305 305 304 304 304 303 302 300 299 297 294 291 288
302 303 304 305 306 307 308 309 310 310 310 309 310 310 310 310 309 309 308 308 308 307 307 306 305 305 305 305 305 305 305 304 303 302 300 298 295 292
304 305 306 306 307 308 309 310 311 311 310 310 310 310 310 310 309 309 309 309 309 308 307 306 305 305 306 306 305 305 305 304 303 303 302 301 298 295
305 306 307 308 309 310 311 311 312 311 311 311 311 311 311 311 310 310 310 310 310 310 309 307 307 307 307 307 306 306 306 305 305 305 304 304 302 299
306 307 308 309 310 310 312 312 313 312 312 312 312 312 312 312 312 312 312 312 312 312 311 309 309 308 308 309 308 307 307 307 306 306 307 307 305 302
307 308 309 310 311 312 313 313 313 313 313 313 313 313 313 313 313 314 314 314 314 314 313 313 312 311 311 310 308 308 308 308 308 308 309 310 308 305
308 309 310 311 312 313 314 314 314 314 314 314 314 314 313 314 314 314 315 315 315 316 316 316 315 314 313 312 310 310 309 308 309 309 310 310 309 308
308 310 311 312 313 315 315 315 315 315 315 315 315 314 314 315 315 315 316 316 317 317 318 318 317 317 316 314 312 311 310 310 310 311 312 311 309 307
309 311 312 313 314 316 316 316 316 316 316 316 315 315 315 316 316 317 317 317 318 318 319 318 318 318 317 315 313 313 313 313 313 313 313 312 310 308
310 312 313 314 315 316 316 316 316 316 316 316 315 315 316 316 317 317 318 317 317 318 319 318 318 318 317 316 315 314 314 314 315 315 315 315 313 312
311 313 314 315 316 317 317 317 316 316 316 316 315 315 316 317 317 318 318 317 316 317 318 318 318 318 318 317 316 315 315 316 316 315 315 315 316 317
311 313 314 316 317 317 317 317 316 316 316 316 315 316 316 317 317 317 317 316 316 317 317 318 319 319 318 317 317 316 317 317 316 316 313 312 316 321
312 314 315 316 317 317 317 317 317 316 316 316 315 316 316 317 317 316 316 316 316 316 317 318 319 319 318 317 317 316 316 318 317 317 314 310 313 320
313 314 315 316 317 317 317 317 317 317 316 316 315 316 317 317 316 316 316 315 316 316 316 317 318 318 317 317 318 316 316 317 316 316 312 309 312 319
Height
5713 5709 5705 5701 5697 5692 5687 5682 5678 5673 5669 5663 5657 5650 5644 5638 5633 5626 5620 5614 5608 5601 5595 5589 5583 5577 5571 5565 5559 5554 5549 5545 5541 5537 5534 5531 5529 5527
5705 5701 5697 5692 5688 5683 5678 5673 5667 5662 5657 5652 5645 5639 5632 5626 5619 5613 5606 5599 5593 5586 5579 5572 5566 5559 5553 5546 5541 5535 5530 5525 5521 5516 5513 5510 5508 5505
5696 5692 5688 5683 5679 5674 5668 5663 5657 5651 5646 5641 5633 5626 5619 5612 5605 5598 5591 5584 5577 5569 5562 5554 5547 5541 5534 5527 5521 5516 5510 5505 5500 5495 5491 5488 5485 5484
5687 5683 5678 5674 5669 5664 5658 5653 5647 5640 5634 5628 5621 5614 5606 5598 5591 5583 5575 5567 5559 5552 5544 5536 5529 5521 5515 5508 5502 5496 5490 5484 5479 5474 5470 5467 5464 5462
5678 5674 5669 5664 5659 5653 5648 5642 5635 5629 5622 5615 5608 5600 5593 5584 5576 5568 5559 5551 5542 5534 5526 5518 5511 5503 5496 5489 5482 5476 5470 5465 5460 5454 5450 5446 5443 5441
5669 5664 5659 5654 5649 5643 5637 5630 5624 5617 5609 5602 5595 5587 5578 5569 5561 5553 5544 5535 5526 5517 5509 5501 5493 5485 5478 5471 5464 5458 5452 5446 5441 5435 5431 5427 5424 5422
5659 5654 5649 5644 5638 5632 5626 5619 5612 5604 5596 5589 5581 5572 5564 5555 5546 5537 5528 5519 5511 5501 5493 5485 5477 5469 5461 5454 5447 5441 5435 5429 5423 5418 5413 5410 5407 5404
5649 5644 5639 5633 5627 5621 5614 5607 5599 5591 5583 5575 5566 5558 5549 5540 5531 5521 5512 5504 5496 5488 5478 5470 5461 5454 5446 5439 5432 5425 5419 5413 5408 5402 5397 5393 5390 5387
5639 5634 5629 5622 5616 5609 5602 5594 5586 5577 5569 5560 5552 5543 5534 5526 5517 5507 5497 5487 5479 5471 5463 5456 5447 5439 5431 5424 5417 5411 5404 5398 5393 5387 5383 5378 5375 5372
5629 5624 5618 5611 5605 5598 5590 5582 5574 5565 5556 5547 5538 5529 5519 5510 5500 5491 5482 5473 5465 5456 5447 5440 5433 5425 5417 5411 5404 5398 5391 5385 5379 5374 5370 5365 5362 5358
5618 5613 5607 5600 5594 5586 5579 5571 5562 5552 5542 5532 5523 5514 5504 5494 5485 5476 5467 5458 5451 5443 5433 5425 5418 5411 5404 5398 5391 5385 5379 5373 5368 5363 5359 5354 5351 5347
5608 5602 5595 5589 5581 5573 5565 5557 5548 5539 5529 5520 5510 5500 5490 5480 5470 5461 5452 5443 5435 5428 5420 5411 5404 5398 5393 5386 5380 5374 5368 5363 5358 5353 5349 5345 5341 5338
5597 5591 5584 5577 5569 5561 5553 5544 5535 5525 5516 5506 5497 5487 5477 5467 5457 5447 5438 5429 5421 5413 5406 5399 5393 5386 5380 5376 5369 5364 5359 5354 5349 5345 5341 5337 5333 5330
5586 5580 5573 5565 5557 5549 5540 5531 5522 5512 5502 5493 5483 5473 5463 5454 5444 5435 5426 5417 5409 5402 5394 5387 5381 5375 5370 5365 5360 5355 5350 5346 5342 5338 5334 5331 5327 5323
5575 5568 5561 5553 5545 5537 5528 5519 5509 5499 5489 5479 5469 5460 5450 5441 5432 5424 5415 5407 5399 5391 5384 5377 5371 5366 5361 5356 5352 5348 5344 5339 5336 5332 5328 5325 5321 5318
5563 5556 5549 5541 5533 5525 5515 5506 5496 5486 5476 5466 5456 5447 5438 5430 5422 5413 5405 5397 5390 5383 5376 5369 5363 5358 5354 5349 5345 5341 5337 5334 5330 5327 5323 5320 5317 5314
5552 5545 5538 5530 5522 5513 5503 5494 5484 5474 5464 5454 5444 5436 5427 5419 5411 5403 5396 5389 5382 5375 5369 5362 5357 5352 5347 5343 5339 5335 5332 5328 5325 5322 5319 5316 5313 5310
5541 5534 5526 5518 5510 5501 5491 5481 5471 5461 5452 5442 5433 5425 5418 5410 5402 5395 5388 5381 5375 5368 5363 5357 5351 5347 5342 5338 5334 5331 5327 5324 5321 5318 5315 5312 5310 5307
5529 5522 5514 5506 5497 5488 5478 5469 5459 5450 5440 5432 5423 5416 5408 5401 5394 5387 5380 5374 5368 5362 5357 5351 5346 5342 5337 5333 5330 5326 5323 5320 5317 5314 5312 5309 5307 5305
5517 5510 5502 5494 5485 5476 5466 5457 5447 5438 5430 5422 5414 5406 5399 5392 5386 5379 5373 5367 5361 5356 5351 5346 5342 5337 5333 5329 5326 5323 5320 5317 5314 5311 5309 5307 5305 5303
5505 5498 5490 5481 5472 5463 5454 5445 5436 5428 5420 5412 5405 5398 5391 5384 5378 5372 5366 5360 5355 5350 5346 5341 5337 5333 5329 5326 5323 5320 5317 5314 5312 5309 5307 5305 5303 5301
5493 5485 5477 5469 5460 5451 5442 5434 5425 5417 5410 5403 5396 5390 5383 5377 5371 5365 5359 5354 5349 5345 5341 5337 5333 5329 5326 5323 5319 5317 5314 5312 5309 5307 5305 5304 5302 5300
5481 5473 5465 5456 5448 5439 5431 5423 5415 5408 5401 5394 5388 5382 5376 5369 5364 5358 5353 5349 5344 5340 5336 5332 5329 5325 5322 5319 5317 5314 5311 5309 5307 5305 5304 5302 5301 5299